[keps] orb06278.2l.amsat

Ray Hoad r.hoad at att.net
Thu Oct 5 19:38:00 PDT 2006


SB KEPS @ AMSAT  $ORB06278.N
2Line Orbital Elements 06278.AMSAT

HR AMSAT ORBITAL ELEMENTS FOR AMATEUR SATELLITES IN NASA FORMAT
FROM WA5QGD FORT WORTH,TX October 5, 2006
Send Subscribe/unsubscribe to KEPS at 
http://www.amsat.org/mailman/listinfo/keps
BID: ORB06278.N

DECODE 2-LINE ELSETS WITH THE FOLLOWING KEY:
1 AAAAAU 00  0  0 BBBBB.BBBBBBBB  .CCCCCCCC  00000-0  00000-0 0  DDDZ
2 AAAAA EEE.EEEE FFF.FFFF GGGGGGG HHH.HHHH III.IIII JJ.JJJJJJJJKKKKKZ
KEY: A-CATALOGNUM B-EPOCHTIME C-DECAY D-ELSETNUM E-INCLINATION F-RAAN
G-ECCENTRICITY H-ARGPERIGEE I-MNANOM J-MNMOTION K-ORBITNUM Z-CHECKSUM

TO ALL RADIO AMATEURS BT

AO-07
1 07530U 74089B   06276.96278712 -.00000028  00000-0  10000-3 0 06965
2 07530 101.5570 317.1305 0012002 035.7395 324.4477 12.53571566459014
UO-11
1 14781U 84021B   06277.61511481  .00000481  00000-0  71753-4 0 01931
2 14781 098.2079 290.1590 0008141 275.6350 084.3928 14.79468089211943
RS-10/11
1 18129U 87054A   06278.89875203  .00000049  00000-0  37133-4 0  1097
2 18129 082.9212 246.2467 0012184 138.2558 221.9530 13.72779178966348
RS-15
1 23439U 94085A   06276.92949249 -.00000039  00000-0  10597-3 0 00063
2 23439 064.8161 061.3490 0166158 235.2750 123.2427 11.27551874484809
FO-29
1 24278U 96046B   06276.95646699  .00000043  00000-0  78469-4 0 03396
2 24278 098.5187 266.4695 0351324 027.6758 334.2599 13.52924715500250
SO-33
1 25509U 98061B   06276.58496650  .00000010  00000-0 -98420-5 0 07605
2 25509 031.4339 236.4850 0355488 344.0937 014.8820 14.28122080414546
VO-52
1 28650U 05017B   06277.62984515  .00000287  00000-0  43480-4 0 04463
2 28650 097.8623 348.6686 0027404 008.1039 352.0651 14.81181350076587
AO-16
1 20439U 90005D   06278.56933183  .00000028  00000-0  25671-4 0  8616
2 20439 098.1905 282.3188 0010073 223.5827 136.4556 14.31734860872110
LO-19
1 20442U 90005G   06278.58076541  .00000041  00000-0  30481-4 0  7954
2 20442 098.1873 291.8500 0011213 222.5635 137.4686 14.31977374872253
AO-27
1 22825U 93061C   06278.50344539  .00000085  00000-0  49818-4 0  5122
2 22825 098.2966 254.9857 0007814 300.6094 059.4320 14.29185757679119
IO-26
1 22826U 93061D   06278.52443689  .00000026  00000-0  26433-4 0  2042
2 22826 098.2908 256.1773 0008260 297.4060 062.6291 14.29429611679190
PO-28
1 22829U 93061G   06278.81453291  .00000067  00000-0  41849-4 0  4884
2 22829 098.2805 257.6502 0008834 267.3351 092.6795 14.30125798679453
GO-32
1 25397U 98043D   06277.73043051 -.00000084  00000-0 -18662-4 0 01279
2 25397 098.4548 330.5982 0000388 240.2640 119.8488 14.23111340427825
MO-46
1 26548U 00057D   06278.43243868  .00000233  00000-0  46455-4 0  6137
2 26548 064.5555 250.7344 0041952 231.5384 128.1958 14.83027714325752
NO-44
1 26931U 01043C   06278.75917741  .00000156  00000-0  93336-4 0  4178
2 26931 067.0510 082.8671 0005043 254.8457 105.2108 14.29454953261733
SO-50
1 27607U 02058C   06276.72476637 -.00000067  00000-0  10988-4 0 01378
2 27607 064.5571 143.6185 0035332 101.8023 258.7021 14.71177033203397
CO-55
1 27844U 03031E   06278.61211241  .00000078  00000-0  56778-4 0  8646
2 27844 098.7204 285.3863 0010755 103.3907 256.8469 14.20461158169337
CO-57
1 27848U 03031J   06276.48737907  .00000033  00000-0  35631-4 0 08292
2 27848 098.7213 282.5887 0010400 111.9339 248.2953 14.20286419169010
AO-51
1 28375U 04025K   06277.61424846  .00000019  00000-0  18740-4 0 06444
2 28375 098.1526 324.5956 0083140 236.7200 122.6005 14.40535153118926
CO-56
1 28941U 06005C   06278.73727739  .00019897  22719-5  24140-3 0  2181
2 28941 098.1704 308.1546 0267977 086.7304 276.4541 15.28558772 34419
NOAA-10
1 16969U 86073A   06276.66238376 -.00000071  00000-0 -10667-4 0 03692
2 16969 098.7604 288.5282 0012127 191.2457 168.8460 14.27304408042635
NOAA-11
1 19531U 88089A   06276.84526680 -.00000024  00000-0  10529-4 0 03141
2 19531 098.8238 004.0731 0012215 043.1243 317.0872 14.14819033929903
NOAA-12
1 21263U 91032A   06276.76058997 -.00000064  00000-0 -82343-5 0 08087
2 21263 098.7399 269.6315 0013343 129.7967 230.4399 14.25508259799712
MET-3/5
1 21655U 91056A   06276.92677286  .00000051  00000-0  10000-3 0 02429
2 21655 082.5590 183.9769 0013730 125.2900 234.9509 13.17007952727672
MET-2/21
1 22782U 93055A   06276.93933507  .00000027  00000-0  11176-4 0 06326
2 22782 082.5451 245.1662 0020925 233.0509 126.8737 13.83610512661089
OKEAN-4
1 23317U 94066A   06278.71665038  .00000213  00000-0  23530-4 0   680
2 23317 082.5423 173.9189 0023196 014.8607 345.3264 14.82405629646359
NOAA-14
1 23455U 94089A   06276.72949375  .00000055  00000-0  53111-4 0 03074
2 23455 099.0269 336.1006 0010174 104.7756 255.4597 14.13667141606405
SICH-1
1 23657U 95046A   06278.71825935  .00000142  00000-0  15089-4 0  8713
2 23657 082.5290 314.8221 0024269 003.9058 356.2349 14.81395653598357
NOAA-15
1 25338U 98030A   06276.74798839  .00000151  00000-0  83376-4 0 06880
2 25338 098.5234 275.8307 0011496 059.5541 300.6767 14.24605508436171
RESURS
1 25394U 98043A   06276.76483910  .00000003  00000-0  19465-4 0 04779
2 25394 098.4814 335.9283 0000820 189.6494 170.4669 14.24113213427854
FENGYUN1
1 25730U 99025A   06278.60905191  .00000003  00000-0  24626-4 0  8408
2 25730 098.6358 267.0272 0014171 182.9275 177.1807 14.11815500381595
OKEAN-0
1 25860U 99039A   06277.61781499  .00000061  00000-0  16683-4 0 08701
2 25860 097.7337 286.8527 0001778 091.3164 268.8259 14.73392625387868
NOAA-16
1 26536U 00055A   06276.74728107  .00000360  00000-0  22031-3 0 00721
2 26536 099.0807 244.7093 0010460 170.8835 189.2506 14.12374662310909
NOAA-17
1 27453U 02032A   06276.88573821  .00000138  00000-0  79023-4 0 00922
2 27453 098.6118 346.9370 0012657 118.5198 241.7276 14.23814405222245
NOAA-18
1 28654U 05018A   06276.84464296 -.00000037  00000-0  37594-5 0 06613
2 28654 098.7953 217.8319 0013637 276.2213 083.7420 14.10994757070707
HUBBLE
1 20580U 90037B   06277.80786798  .00000426  00000-0  20344-4 0 07299
2 20580 028.4673 055.2622 0003768 262.2061 097.8100 15.00102802701576
UARS
1 21701U 91063B   06278.68782333  .00005328  00000-0  98962-4 0  8864
2 21701 056.9770 335.7851 0106169 063.4850 297.7045 15.44822233826372
PO-34
1 25520U 98064B   06277.83690438  .00000580  00000-0  19028-4 0  5773
2 25520 028.4609 017.5365 0005136 357.8239 002.2301 15.16802951438713
ISS
1 25544U 98067A   06278.76793981  .00016812  00000-0  10658-3 0  8050
2 25544 051.6381 337.7999 0012821 063.7377 069.8845 15.76584864450609
OO-38
1 26063U 00004C   06278.81650236  .00000021  00000-0  27548-4 0  7334
2 26063 100.1954 229.8033 0037036 155.2587 205.0385 14.35779284350548
NO-45
1 26932U 01043D   06276.94878179 -.00000044  00000-0  15297-4 0 04277
2 26932 067.0532 087.2544 0006202 233.3929 126.6599 14.29536144261510
UWE-1
1 28892U 05043C   06278.72002211  .00000137  00000-0  38549-4 0  5685
2 28892 098.1494 175.0701 0017172 183.1793 176.9292 14.59402109 50092
CO-58
1 28895U 05043F   06276.71905975  .00000302  00000-0  73329-4 0 05537
2 28895 098.1508 173.2224 0017385 189.9265 170.1603 14.59452147049687
NCUBE2
1 28897U 05043H   06276.47911192  .00000134  00000-0  37787-4 0 01302
2 28897 098.1512 172.9649 0017078 191.7740 168.3061 14.59607660041927
/EX






More information about the Keps mailing list